Tracking 27107 objects as of 20-Mar-2023
HD Live streaming from Space Station
objects crossing your sky now

SL-6 R/B(2)

Track SL-6 R/B(2) now!


NORAD ID: 12159
Int'l Code: 1981-009D
Perigee: 533.4 km
Apogee: 38,787.5 km
Inclination: 61.8 °
Period: 696.6 minutes
Semi major axis: 26031 km
RCS: 7.8038 m2 (large)
Launch date: January 30, 1981
Source: Commonwealth of Independent States (former USSR) (CIS)
Launch site: PLESETSK MISSILE AND SPACE COMPLEX (PKMTR)

Note: This is a ROCKET BODY
Your satellite tracking list
Your tracking list is empty




NASA's NSSDC Master Catalog

Two Line Element Set (TLE):
1 12159U 81009D   23078.55877199 -.00000118  00000-0  89440-3 0  9996
2 12159  61.8127 131.1219 7347665 266.5517  15.3154  2.06706952310137
Source of the keplerian elements: AFSPC